Stündliche Wetter Dabakala

Heute, 25 Oktober, Sonntag

Zeit Temperatur Niederschläge Wind Luftdruck Luftfeuchtigkeit
00:00 +24°C° 0 mm 0 m/S 733 mmHg 72%
01:00 +23°C° 0 mm 0 m/S 732 mmHg 74%
02:00 +25°C° 0 mm 1 m/S 732 mmHg 75%
03:00 +24°C° 0 mm 1 m/S 731 mmHg 77%
04:00 +24°C° 0 mm 1 m/S 732 mmHg 80%
05:00 +23°C° 0 mm 1 m/S 732 mmHg 83%
06:00 +23°C° 0 mm 1 m/S 732 mmHg 86%
07:00 +25°C° 0 mm 1 m/S 732 mmHg 82%
08:00 +26°C° 0 mm 1 m/S 733 mmHg 78%
09:00 +28°C° 0 mm 1 m/S 734 mmHg 74%
10:00 +30°C° 0 mm 1 m/S 733 mmHg 67%
11:00 +32°C° 0 mm 1 m/S 733 mmHg 60%
12:00 +33°C° 0 mm 1 m/S 733 mmHg 53%
13:00 +34°C° 0 mm 1 m/S 732 mmHg 50%
14:00 +34°C° 0 mm 1 m/S 732 mmHg 46%
15:00 +34°C° 0 mm 1 m/S 731 mmHg 43%
16:00 +33°C° 0 mm 1 m/S 731 mmHg 49%
17:00 +31°C° 0 mm 1 m/S 731 mmHg 54%
18:00 +29°C° 0 mm 1 m/S 731 mmHg 60%
19:00 +28°C° 0 mm 1 m/S 732 mmHg 63%
20:00 +28°C° 0 mm 1 m/S 732 mmHg 65%
21:00 +27°C° 0 mm 1 m/S 733 mmHg 68%
22:00 +27°C° 0 mm 1 m/S 733 mmHg 71%
23:00 +26°C° 0 mm 1 m/S 733 mmHg 73%

Morgen, 26 Oktober, Montag

Zeit Temperatur Niederschläge Wind Luftdruck Luftfeuchtigkeit
00:00 +26°C° 0 mm 1 m/S 732 mmHg 76%
01:00 +25°C° 0 mm 1 m/S 732 mmHg 78%
02:00 +25°C° 0 mm 1 m/S 732 mmHg 80%
03:00 +24°C° 0 mm 1 m/S 731 mmHg 81%
04:00 +24°C° 0 mm 1 m/S 732 mmHg 84%
05:00 +24°C° 0 mm 1 m/S 732 mmHg 87%
06:00 +23°C° 0 mm 1 m/S 732 mmHg 90%
07:00 +25°C° 0 mm 1 m/S 732 mmHg 84%
08:00 +27°C° 0 mm 1 m/S 733 mmHg 79%
09:00 +29°C° 0 mm 2 m/S 733 mmHg 74%
10:00 +31°C° 0 mm 1 m/S 733 mmHg 66%
11:00 +33°C° 0 mm 1 m/S 733 mmHg 58%
12:00 +34°C° 0 mm 0 m/S 732 mmHg 50%
13:00 +35°C° 0 mm 1 m/S 732 mmHg 47%
14:00 +35°C° 0 mm 1 m/S 731 mmHg 45%
15:00 +35°C° 0 mm 1 m/S 730 mmHg 42%
16:00 +33°C° 0 mm 1 m/S 730 mmHg 49%
17:00 +31°C° 0 mm 1 m/S 730 mmHg 55%
18:00 +29°C° 0 mm 1 m/S 730 mmHg 62%
19:00 +29°C° 0 mm 1 m/S 731 mmHg 63%
20:00 +28°C° 0 mm 1 m/S 732 mmHg 65%
21:00 +28°C° 0 mm 1 m/S 732 mmHg 67%
22:00 +27°C° 0 mm 1 m/S 732 mmHg 69%
23:00 +27°C° 0 mm 1 m/S 732 mmHg 72%

übermorgen, 27 Oktober, Dienstag

Zeit Temperatur Niederschläge Wind Luftdruck Luftfeuchtigkeit
00:00 +26°C° 0 mm 1 m/S 732 mmHg 74%
01:00 +26°C° 0 mm 1 m/S 732 mmHg 77%
02:00 +25°C° 0 mm 1 m/S 731 mmHg 80%
03:00 +25°C° 0 mm 1 m/S 731 mmHg 83%
04:00 +25°C° 0 mm 1 m/S 731 mmHg 85%
05:00 +24°C° 0 mm 1 m/S 732 mmHg 88%
06:00 +24°C° 0 mm 1 m/S 732 mmHg 90%
07:00 +26°C° 0 mm 1 m/S 732 mmHg 85%
08:00 +27°C° 0 mm 2 m/S 733 mmHg 79%
09:00 +29°C° 0 mm 2 m/S 733 mmHg 73%
10:00 +31°C° 0 mm 2 m/S 733 mmHg 66%
11:00 +33°C° 0 mm 1 m/S 732 mmHg 59%
12:00 +35°C° 0 mm 1 m/S 732 mmHg 52%
13:00 +35°C° 0 mm 1 m/S 731 mmHg 50%
14:00 +35°C° 0 mm 1 m/S 730 mmHg 47%
15:00 +36°C° 0 mm 2 m/S 730 mmHg 45%
16:00 +33°C° 0 mm 1 m/S 730 mmHg 52%
17:00 +31°C° 0 mm 1 m/S 730 mmHg 59%
18:00 +30°C° 0 mm 1 m/S 730 mmHg 66%
19:00 +29°C° 0 mm 1 m/S 731 mmHg 67%
20:00 +28°C° 0 mm 1 m/S 731 mmHg 69%
21:00 +28°C° 0 mm 1 m/S 732 mmHg 71%
22:00 +27°C° 0.1 mm 2 m/S 732 mmHg 76%
23:00 +26°C° 0.1 mm 2 m/S 732 mmHg 80%

, 28 Oktober, Mittwoch

Zeit Temperatur Niederschläge Wind Luftdruck Luftfeuchtigkeit
00:00 +25°C° 0.1 mm 2 m/S 732 mmHg 85%
01:00 +25°C° 0 mm 2 m/S 732 mmHg 87%
02:00 +25°C° 0 mm 2 m/S 732 mmHg 88%
03:00 +25°C° 0 mm 2 m/S 731 mmHg 90%
04:00 +24°C° 0 mm 2 m/S 732 mmHg 91%
05:00 +24°C° 0 mm 1 m/S 732 mmHg 92%
06:00 +24°C° 0 mm 1 m/S 732 mmHg 94%
07:00 +26°C° 0 mm 1 m/S 733 mmHg 87%
08:00 +27°C° 0 mm 2 m/S 733 mmHg 81%
09:00 +29°C° 0 mm 2 m/S 734 mmHg 74%
10:00 +30°C° 0 mm 2 m/S 733 mmHg 67%
11:00 +32°C° 0 mm 1 m/S 733 mmHg 61%
12:00 +34°C° 0 mm 1 m/S 733 mmHg 54%
13:00 +35°C° 0 mm 2 m/S 732 mmHg 51%
14:00 +35°C° 0 mm 2 m/S 731 mmHg 48%
15:00 +36°C° 0 mm 2 m/S 731 mmHg 45%
16:00 +34°C° 0 mm 2 m/S 731 mmHg 54%
17:00 +31°C° 0 mm 2 m/S 731 mmHg 63%
18:00 +29°C° 0 mm 2 m/S 731 mmHg 72%
19:00 +28°C° 0 mm 2 m/S 732 mmHg 73%
20:00 +27°C° 0 mm 1 m/S 732 mmHg 74%
21:00 +27°C° 0 mm 1 m/S 733 mmHg 76%
22:00 +26°C° 0 mm 1 m/S 733 mmHg 79%
23:00 +26°C° 0 mm 1 m/S 733 mmHg 82%

28 Oktober, Mittwoch

Zeit Temperatur Niederschläge Wind Luftdruck Luftfeuchtigkeit
00:00 +25°C° 0.1 mm 2 m/S 732 mmHg 85%
01:00 +25°C° 0 mm 2 m/S 732 mmHg 87%
02:00 +25°C° 0 mm 2 m/S 732 mmHg 88%
03:00 +25°C° 0 mm 2 m/S 731 mmHg 90%
04:00 +24°C° 0 mm 2 m/S 732 mmHg 91%
05:00 +24°C° 0 mm 1 m/S 732 mmHg 92%
06:00 +24°C° 0 mm 1 m/S 732 mmHg 94%
07:00 +26°C° 0 mm 1 m/S 733 mmHg 87%
08:00 +27°C° 0 mm 2 m/S 733 mmHg 81%
09:00 +29°C° 0 mm 2 m/S 734 mmHg 74%
10:00 +30°C° 0 mm 2 m/S 733 mmHg 67%
11:00 +32°C° 0 mm 1 m/S 733 mmHg 61%
12:00 +34°C° 0 mm 1 m/S 733 mmHg 54%
13:00 +35°C° 0 mm 2 m/S 732 mmHg 51%
14:00 +35°C° 0 mm 2 m/S 731 mmHg 48%
15:00 +36°C° 0 mm 2 m/S 731 mmHg 45%
16:00 +34°C° 0 mm 2 m/S 731 mmHg 54%
17:00 +31°C° 0 mm 2 m/S 731 mmHg 63%
18:00 +29°C° 0 mm 2 m/S 731 mmHg 72%
19:00 +28°C° 0 mm 2 m/S 732 mmHg 73%
20:00 +27°C° 0 mm 1 m/S 732 mmHg 74%
21:00 +27°C° 0 mm 1 m/S 733 mmHg 76%
22:00 +26°C° 0 mm 1 m/S 733 mmHg 79%
23:00 +26°C° 0 mm 1 m/S 733 mmHg 82%

29 Oktober, Donnerstag

Zeit Temperatur Niederschläge Wind Luftdruck Luftfeuchtigkeit
00:00 +25°C° 0 mm 1 m/S 733 mmHg 85%
01:00 +25°C° 0 mm 1 m/S 732 mmHg 87%
02:00 +25°C° 0 mm 1 m/S 732 mmHg 89%
03:00 +24°C° 0 mm 1 m/S 732 mmHg 91%
04:00 +24°C° 0 mm 1 m/S 732 mmHg 92%
05:00 +24°C° 0 mm 1 m/S 732 mmHg 94%
06:00 +23°C° 0 mm 1 m/S 732 mmHg 95%
07:00 +25°C° 0 mm 1 m/S 733 mmHg 87%
08:00 +27°C° 0 mm 1 m/S 733 mmHg 79%
09:00 +29°C° 0 mm 1 m/S 734 mmHg 71%
10:00 +31°C° 0 mm 1 m/S 733 mmHg 64%
11:00 +32°C° 0 mm 1 m/S 733 mmHg 57%
12:00 +35°C° 0 mm 2 m/S 733 mmHg 50%
13:00 +35°C° 0 mm 2 m/S 732 mmHg 48%
14:00 +35°C° 0 mm 2 m/S 732 mmHg 46%
15:00 +35°C° 0 mm 2 m/S 731 mmHg 45%
16:00 +34°C° 0 mm 2 m/S 731 mmHg 52%
17:00 +31°C° 0 mm 2 m/S 731 mmHg 59%
18:00 +29°C° 0 mm 1 m/S 731 mmHg 66%
19:00 +28°C° 0 mm 1 m/S 732 mmHg 69%
20:00 +28°C° 0 mm 1 m/S 733 mmHg 72%
21:00 +27°C° 0 mm 1 m/S 733 mmHg 76%
22:00 +27°C° 0 mm 1 m/S 733 mmHg 75%
23:00 +27°C° 0 mm 1 m/S 733 mmHg 75%

30 Oktober, Freitag

Zeit Temperatur Niederschläge Wind Luftdruck Luftfeuchtigkeit
00:00 +26°C° 0 mm 1 m/S 733 mmHg 75%
01:00 +26°C° 0 mm 1 m/S 733 mmHg 79%
02:00 +25°C° 0 mm 1 m/S 733 mmHg 83%
03:00 +24°C° 0 mm 1 m/S 732 mmHg 87%
04:00 +24°C° 0 mm 1 m/S 732 mmHg 89%
05:00 +24°C° 0 mm 1 m/S 733 mmHg 91%
06:00 +23°C° 0 mm 1 m/S 733 mmHg 94%
07:00 +25°C° 0 mm 1 m/S 733 mmHg 87%
08:00 +27°C° 0 mm 1 m/S 734 mmHg 80%
09:00 +29°C° 0 mm 2 m/S 734 mmHg 73%
10:00 +31°C° 0 mm 2 m/S 734 mmHg 65%
11:00 +32°C° 0 mm 2 m/S 734 mmHg 58%
12:00 +35°C° 0 mm 2 m/S 733 mmHg 50%
13:00 +35°C° 0 mm 2 m/S 733 mmHg 48%
14:00 +36°C° 0 mm 2 m/S 732 mmHg 45%
15:00 +36°C° 0 mm 2 m/S 731 mmHg 43%
16:00 +34°C° 0 mm 2 m/S 731 mmHg 51%
17:00 +31°C° 0 mm 2 m/S 731 mmHg 60%
18:00 +29°C° 0 mm 1 m/S 731 mmHg 69%
19:00 +29°C° 0 mm 1 m/S 732 mmHg 70%
20:00 +28°C° 0 mm 1 m/S 733 mmHg 72%
21:00 +27°C° 0 mm 1 m/S 733 mmHg 73%
22:00 +27°C° 0 mm 1 m/S 733 mmHg 75%
23:00 +26°C° 0 mm 1 m/S 733 mmHg 77%
Mehr zeigen

Wir brauchen deine Erlaubnis

Meteoprog und unser Service Anbieter werden persönliche Daten aufbewahren, so wie Cookies, Geräte Bezeichnung oder ähnliche Technologien von deinem Gerät und Prozess, so wie Persönliche Daten Inhalte und Werbungen, genauso wie social Media und den Verkehr zu analysieren.

  • Aufbewahrung und/oder Zugang zu deiner Geräte Informationen.

    Cookies, Geräte Bezeichnung oder andere Informationen, können aufbewahrt oder Zugang zu deinem Gerät erhalten, für den Grund, der oben angegeben wird.

  • Personalisierte Werbung und Inhalte, Messungen, Einblick in das Publikum und Produkt Entwicklung.

    Werbungen und Inhalte können personalisiert werden, basierend auf ein Profil. Mehr Daten können besser personalisierte Werbungen und Inhalte hinzufügen. Werbung und Inhalte können gezeigt und gemessen werden. Einblicke über das Publikum, welche die Werbung gesehen haben und den Inhalt, können abgeleitet werden. So wie Daten können genutzt werden, um es zu verbessern oder die Benutzer Erfahrung zu verbessern das System und die Software.

Wenn du “Ich stimme zu” klickst, erlaubst du uns, die Cookies zu benutzen die Geräte Bezeichnung, den Web oder ähnliche Technologien zu benutzen. Deine Settings, können in deinem Gerät bei deinem Browser geändert werden.

Für den bestimmten Zweck, berechtigten Interessen beruhen darauf, mehr als auf den Inhalt. Du kannst mehr darüber in unseren Privaten und Cookie Politik lesen.